Spearman, TX

3:36 AM CDT on August 29, 2016 (GMT -0500)
Pampa / Mesa Vista

Weather History for KBPC - February, 2015

Change the Weather History Date:

Sunday, February 22, 2015

  Actual Average (KBGD) Record (KBGD)
Temperature  
Mean Temperature 30 °F 43 °F  
Max Temperature 44 °F 56 °F 82 °F (1996)
Min Temperature 17 °F 31 °F 13 °F (1966)
Degree Days  
Heating Degree Days 34 22  
Month to date heating degree days 517  
Since 1 July heating degree days 2869  
Cooling Degree Days 0 0  
Month to date cooling degree days 0  
Year to date cooling degree days 0  
Moisture  
Dew Point 20 °F    
Average Humidity 87    
Maximum Humidity 100    
Minimum Humidity 61    
Precipitation  
Precipitation 0.13 in 0.02 in 0.73 in (1975)
Month to date precipitation 0.51  
Year to date precipitation 1.10  
Snow  
Snow 0.00 in - 9.00 in (1975)
Month to date snowfall  
Since 1 July snowfall  
Snow Depth -    
Sea Level Pressure  
Sea Level Pressure 30.39 in    
Wind  
Wind Speed 14 mph (NNE)    
Max Wind Speed 28 mph    
Max Gust Speed 34 mph    
Visibility 6 miles    
Events Rain , Snow    
T = Trace of Precipitation, MM = Missing Value Source: NWS Daily Summary

Daily Weather History Graph

Daily Weather History Graph

Search for Another Location

Airport or City:

Trip Planner

Search our weather history database for the weather conditions in past years. The results will help you decide how hot, cold, wet, or windy it might be!

Date:

Astronomy

Feb. 22, 2015 Rise Set
Actual Time 7:23 AM CST 6:32 PM CST
Civil Twilight 6:57 AM CST 6:58 PM CST
Nautical Twilight 6:27 AM CST 7:28 PM CST
Astronomical Twilight 5:58 AM CST 7:57 PM CST
Moon 9:44 AM CST (2/22) 11:07 PM CST (2/22)
Length of Visible Light 12h 00m
Length of Day
11h 09m
Waxing Crescent, 19% of the Moon is Illuminated
Feb 22
Waxing Crescent
Feb 25
First Quarter
Mar 5
Full
Mar 13
Last Quarter
Mar 20
New

Hourly Weather History & Observations

Time (CST) Temp. Windchill Dew Point Humidity Pressure Visibility Wind Dir Wind Speed Gust Speed Precip Events Conditions
12:15 AM 44.6 °F 39.7 °F 32.0 °F 61% 30.07 in 10.0 mi East 9.2 mph - N/A   Overcast
12:35 AM 42.8 °F 38.0 °F 32.0 °F 66% 30.07 in 10.0 mi East 8.1 mph - N/A   Light Drizzle
12:55 AM 41.0 °F 35.8 °F 32.0 °F 70% 30.07 in 10.0 mi NE 8.1 mph - N/A   Overcast
1:15 AM 41.0 °F 36.4 °F 33.8 °F 76% 30.09 in 10.0 mi ENE 6.9 mph - N/A Rain Light Rain
1:35 AM 39.2 °F 33.6 °F 35.6 °F 87% 30.10 in 10.0 mi East 8.1 mph - N/A Rain Light Rain
1:55 AM 39.2 °F 33.6 °F 35.6 °F 87% 30.10 in 10.0 mi ENE 8.1 mph - N/A   Drizzle
2:15 AM 39.2 °F 31.6 °F 35.6 °F 87% 30.11 in 10.0 mi ENE 12.7 mph - N/A Rain Light Rain
2:35 AM 37.4 °F 29.3 °F 35.6 °F 93% 30.12 in 10.0 mi NE 12.7 mph - 0.01 in Rain Light Rain
2:55 AM 37.4 °F 29.3 °F 35.6 °F 93% 30.14 in 10.0 mi NE 12.7 mph - 0.03 in Rain Light Rain
3:15 AM 37.4 °F 29.8 °F 35.6 °F 93% 30.15 in 7.0 mi ENE 11.5 mph - 0.01 in Rain Rain
3:35 AM 37.4 °F 29.3 °F 35.6 °F 93% 30.16 in 7.0 mi ENE 12.7 mph 19.6 mph 0.04 in Rain Light Rain
3:55 AM 35.6 °F 25.9 °F 33.8 °F 93% 30.18 in 7.0 mi NNE 16.1 mph 20.7 mph 0.07 in Rain Light Rain
4:15 AM 32.0 °F 23.6 °F 32.0 °F 100% 30.20 in 1.5 mi NNE 10.4 mph - 0.02 in Snow Light Snow
4:35 AM 32.0 °F 20.1 °F 32.0 °F 100% 30.22 in 0.8 mi NNE 19.6 mph 24.2 mph 0.03 in Snow Snow
4:55 AM 32.0 °F 19.5 °F 32.0 °F 100% 30.23 in 0.8 mi NNE 21.9 mph 28.8 mph 0.03 in Snow Snow
5:15 AM 28.4 °F 14.7 °F 28.4 °F 100% 30.26 in 1.2 mi NNE 21.9 mph 28.8 mph N/A Snow Light Snow
5:35 AM 26.6 °F 13.4 °F 24.8 °F 93% 30.28 in 1.5 mi NNE 18.4 mph 21.9 mph N/A Snow Light Snow
5:55 AM 24.8 °F 11.1 °F 23.0 °F 93% 30.30 in 2.5 mi NNE 18.4 mph 24.2 mph N/A Snow Light Snow
6:15 AM 24.8 °F 11.5 °F 23.0 °F 93% 30.30 in 7.0 mi NNE 17.3 mph 26.5 mph N/A   Overcast
6:35 AM 23.0 °F 8.0 °F 21.2 °F 93% 30.32 in 10.0 mi NNE 20.7 mph 26.5 mph N/A Snow Light Snow
6:55 AM 23.0 °F 8.3 °F 21.2 °F 93% 30.34 in 7.0 mi NNE 19.6 mph 27.6 mph N/A   Overcast
7:15 AM 23.0 °F 8.3 °F 21.2 °F 93% 30.36 in 4.0 mi NNE 19.6 mph 29.9 mph N/A   Overcast
7:35 AM 23.0 °F 8.7 °F 21.2 °F 93% 30.37 in 4.0 mi NNE 18.4 mph 27.6 mph N/A   Overcast
7:55 AM 21.2 °F 5.2 °F 19.4 °F 93% 30.38 in 7.0 mi NNE 21.9 mph 28.8 mph N/A   Overcast
8:15 AM 21.2 °F 4.5 °F 19.4 °F 93% 30.39 in 3.0 mi NNE 24.2 mph 27.6 mph N/A Snow Light Snow
8:35 AM 21.2 °F 3.5 °F 17.6 °F 86% 30.40 in 4.0 mi NE 27.6 mph 34.5 mph N/A   Overcast
8:55 AM 21.2 °F 6.0 °F 17.6 °F 86% 30.41 in 10.0 mi NE 19.6 mph 24.2 mph N/A   Overcast
9:15 AM 21.2 °F 7.8 °F 19.4 °F 93% 30.42 in 5.0 mi NE 15.0 mph 21.9 mph N/A   Overcast
9:35 AM 19.4 °F 5.5 °F 17.6 °F 93% 30.43 in 5.0 mi NNE 15.0 mph 28.8 mph N/A   Overcast
9:55 AM 19.4 °F 4.1 °F 17.6 °F 93% 30.43 in 5.0 mi NE 18.4 mph 23.0 mph N/A   Overcast
10:15 AM 19.4 °F 3.6 °F 15.8 °F 86% 30.44 in 10.0 mi NNE 19.6 mph 31.1 mph N/A   Overcast
10:35 AM 19.4 °F 2.8 °F 17.6 °F 93% 30.44 in 10.0 mi NNE 21.9 mph 27.6 mph N/A   Overcast
10:55 AM 19.4 °F 2.5 °F 15.8 °F 86% 30.44 in 7.0 mi NNE 23.0 mph 26.5 mph N/A   Overcast
11:15 AM 19.4 °F 6.6 °F 17.6 °F 93% 30.45 in 4.0 mi NNE 12.7 mph 24.2 mph N/A   Overcast
11:35 AM 19.4 °F 4.5 °F 17.6 °F 93% 30.45 in 5.0 mi NNE 17.3 mph 20.7 mph N/A   Overcast
11:55 AM 19.4 °F 4.5 °F 17.6 °F 93% 30.46 in 4.0 mi NNE 17.3 mph - N/A Snow Light Snow
12:15 PM 19.4 °F 4.5 °F 17.6 °F 93% 30.46 in 1.5 mi NNE 17.3 mph - N/A Snow Light Snow
12:35 PM 19.4 °F 4.5 °F 17.6 °F 93% 30.46 in 1.2 mi NNE 17.3 mph - N/A Snow Light Snow
12:55 PM 19.4 °F 5.5 °F 17.6 °F 93% 30.46 in 2.5 mi NNE 15.0 mph 18.4 mph N/A Snow Light Snow
1:15 PM 19.4 °F 6.0 °F 17.6 °F 93% 30.44 in 1.5 mi NNE 13.8 mph - N/A Snow Light Snow
1:35 PM 19.4 °F 5.5 °F 15.8 °F 86% 30.44 in 2.5 mi North 15.0 mph 20.7 mph N/A Snow Light Snow
1:55 PM 19.4 °F 6.6 °F 15.8 °F 86% 30.45 in 7.0 mi NE 12.7 mph 19.6 mph N/A Snow Light Snow
2:15 PM 19.4 °F 5.5 °F 14.0 °F 80% 30.45 in 5.0 mi NNE 15.0 mph 23.0 mph N/A Snow Light Snow
2:35 PM 19.4 °F 4.1 °F 14.0 °F 80% 30.45 in 4.0 mi NNE 18.4 mph 21.9 mph N/A Snow Light Snow
2:55 PM 19.4 °F 5.5 °F 15.8 °F 86% 30.45 in 1.5 mi NNE 15.0 mph 20.7 mph N/A Snow Light Snow
3:15 PM 19.4 °F 3.6 °F 14.0 °F 80% 30.45 in 3.0 mi NNE 19.6 mph 26.5 mph N/A Snow Light Snow
3:35 PM 19.4 °F 2.5 °F 14.0 °F 80% 30.45 in 5.0 mi NNE 23.0 mph 27.6 mph N/A   Haze
3:55 PM 19.4 °F 4.5 °F 14.0 °F 80% 30.45 in 10.0 mi NE 17.3 mph 25.3 mph N/A   Overcast
4:15 PM 19.4 °F 5.5 °F 14.0 °F 80% 30.45 in 7.0 mi NE 15.0 mph 21.9 mph N/A   Overcast
4:35 PM 19.4 °F 5.0 °F 14.0 °F 80% 30.46 in 10.0 mi NNE 16.1 mph 23.0 mph N/A   Overcast
4:55 PM 19.4 °F 6.0 °F 14.0 °F 80% 30.46 in 10.0 mi NE 13.8 mph - N/A   Overcast
5:15 PM 19.4 °F 5.5 °F 14.0 °F 80% 30.45 in 4.0 mi NNE 15.0 mph - N/A Snow Light Snow
5:35 PM 17.6 °F 3.2 °F 14.0 °F 86% 30.46 in 3.0 mi NNE 15.0 mph 18.4 mph N/A Snow Light Snow
5:55 PM 17.6 °F 4.3 °F 14.0 °F 86% 30.48 in 10.0 mi NNE 12.7 mph - N/A   Overcast
6:15 PM 17.6 °F 2.7 °F 12.2 °F 79% 30.47 in 10.0 mi NNE 16.1 mph - N/A   Overcast
6:35 PM 17.6 °F 4.3 °F 12.2 °F 79% 30.51 in 10.0 mi NNE 12.7 mph 17.3 mph N/A   Overcast
6:55 PM 17.6 °F 5.7 °F 14.0 °F 86% 30.51 in 7.0 mi NNE 10.4 mph - N/A Snow Light Snow
7:15 PM 17.6 °F 4.3 °F 14.0 °F 86% 30.50 in 3.0 mi NNE 12.7 mph 16.1 mph N/A Snow Light Snow
7:35 PM 17.6 °F 5.7 °F 14.0 °F 86% 30.52 in 10.0 mi NNE 10.4 mph - N/A Snow Light Snow
7:55 PM 17.6 °F 4.3 °F 14.0 °F 86% 30.51 in 10.0 mi NNE 12.7 mph - N/A   Overcast
8:15 PM 17.6 °F 5.0 °F 14.0 °F 86% 30.54 in 10.0 mi NNE 11.5 mph - N/A   Overcast
8:35 PM 17.6 °F 4.3 °F 14.0 °F 86% 30.54 in 5.0 mi NNE 12.7 mph - N/A Snow Light Snow
8:55 PM 17.6 °F 3.7 °F 14.0 °F 86% 30.54 in 7.0 mi NNE 13.8 mph - N/A Snow Light Snow
9:15 PM 17.6 °F 1.7 °F 12.2 °F 79% 30.55 in 10.0 mi NNE 18.4 mph 23.0 mph N/A   Overcast
9:35 PM 17.6 °F 3.2 °F 12.2 °F 79% 30.55 in 10.0 mi NE 15.0 mph 21.9 mph N/A   Overcast
9:55 PM 17.6 °F 5.0 °F 12.2 °F 79% 30.57 in 10.0 mi NNE 11.5 mph - N/A Snow Light Snow
10:15 PM 17.6 °F 5.7 °F 12.2 °F 79% 30.58 in 10.0 mi NNE 10.4 mph - N/A Snow Light Snow
10:35 PM 17.6 °F 5.7 °F 14.0 °F 86% 30.59 in 5.0 mi NNE 10.4 mph - N/A Snow Light Snow
10:55 PM 17.6 °F 6.4 °F 12.2 °F 79% 30.58 in 7.0 mi NNE 9.2 mph - N/A Snow Light Snow
11:15 PM 17.6 °F 3.7 °F 12.2 °F 79% 30.59 in 5.0 mi NNE 13.8 mph 19.6 mph N/A Snow Light Snow
11:35 PM 17.6 °F 5.0 °F 12.2 °F 79% 30.59 in 5.0 mi North 11.5 mph - N/A Snow Light Snow
11:55 PM 17.6 °F 3.2 °F 12.2 °F 79% 30.59 in 7.0 mi NNE 15.0 mph - N/A Snow Light Snow